Moose Lake, MN

1:07 AM CDT on August 25, 2016 (GMT -0500)
Moose Lake-Carlton County

Weather History for KMZH - May, 2014

Change the Weather History Date:

Sunday, May 11, 2014

  Actual Average Record
Temperature  
Mean Temperature 56 °F -  
Max Temperature 69 °F 64 °F 84 °F (1961)
Min Temperature 42 °F 37 °F 22 °F (1960)
Degree Days  
Heating Degree Days 10    
Growing Degree Days 6 (Base 50)    
Moisture  
Dew Point 40 °F    
Average Humidity 64    
Maximum Humidity 93    
Minimum Humidity 43    
Precipitation  
Precipitation 0.01 in - - ()
Sea Level Pressure  
Sea Level Pressure 29.86 in    
Wind  
Wind Speed 5 mph (ENE)    
Max Wind Speed 13 mph    
Max Gust Speed 18 mph    
Visibility 10 miles    
Events      
Averages and records for this station are not official NWS values.
T = Trace of Precipitation, MM = Missing Value Source: NWS Daily Summary

Daily Weather History Graph

Daily Weather History Graph

Search for Another Location

Airport or City:

Trip Planner

Search our weather history database for the weather conditions in past years. The results will help you decide how hot, cold, wet, or windy it might be!

Date:

Astronomy

May. 11, 2014 Rise Set
Actual Time 5:42 AM CDT 8:33 PM CDT
Civil Twilight 5:07 AM CDT 9:08 PM CDT
Nautical Twilight 4:23 AM CDT 9:52 PM CDT
Astronomical Twilight 3:31 AM CDT 10:45 PM CDT
Moon 5:18 PM CDT (5/11) 4:00 AM CDT (5/11)
Length of Visible Light 16h 00m
Length of Day
14h 50m
Waxing Gibbous, 89% of the Moon is Illuminated
May 11
Waxing Gibbous
May 14
Full
May 21
Last Quarter
May 28
New
Jun 5
First Quarter

Hourly Weather History & Observations

Time (CDT) Temp. Windchill Dew Point Humidity Pressure Visibility Wind Dir Wind Speed Gust Speed Precip Events Conditions
12:13 AM 51.8 °F - 46.4 °F 82% 29.84 in 10.0 mi NNE 4.6 mph - N/A   Mostly Cloudy
12:34 AM 50.0 °F - 46.4 °F 87% 29.84 in 10.0 mi Calm Calm - N/A   Scattered Clouds
12:54 AM 50.0 °F - 44.6 °F 82% 29.85 in 10.0 mi Calm Calm - N/A   Overcast
1:14 AM 50.0 °F - 46.4 °F 87% 29.85 in 10.0 mi Calm Calm - N/A   Mostly Cloudy
1:33 AM 48.2 °F - 44.6 °F 87% 29.84 in 10.0 mi NE 3.5 mph - N/A   Clear
1:53 AM 46.4 °F 45.2 °F 44.6 °F 93% 29.84 in 10.0 mi NNE 3.5 mph - N/A   Clear
2:13 AM 46.4 °F - 44.6 °F 93% 29.84 in 10.0 mi Calm Calm - N/A   Clear
2:33 AM 46.4 °F 45.2 °F 44.6 °F 93% 29.84 in 10.0 mi NE 3.5 mph - 0.01 in   Scattered Clouds
2:53 AM 46.4 °F 45.2 °F 44.6 °F 93% 29.84 in 10.0 mi NE 3.5 mph - 0.01 in   Mostly Cloudy
3:14 AM 46.4 °F 45.2 °F 44.6 °F 93% 29.84 in 10.0 mi NE 3.5 mph - N/A   Overcast
3:34 AM 44.6 °F 42.2 °F 42.8 °F 93% 29.84 in 10.0 mi NE 4.6 mph - N/A   Scattered Clouds
3:53 AM 44.6 °F 43.1 °F 42.8 °F 93% 29.83 in 10.0 mi NNE 3.5 mph - N/A   Clear
4:15 AM 44.6 °F - 41.0 °F 87% 29.84 in 10.0 mi Calm Calm - N/A   Clear
4:34 AM 42.8 °F 40.1 °F 41.0 °F 93% 29.84 in 10.0 mi NNE 4.6 mph - N/A   Clear
4:53 AM 42.8 °F 40.1 °F 37.4 °F 81% 29.84 in 10.0 mi NE 4.6 mph - N/A   Clear
5:14 AM 42.8 °F 40.1 °F 37.4 °F 81% 29.83 in 10.0 mi NE 4.6 mph - N/A   Clear
5:34 AM 42.8 °F 40.1 °F 37.4 °F 81% 29.83 in 10.0 mi NNE 4.6 mph - N/A   Clear
5:54 AM 42.8 °F 40.1 °F 35.6 °F 76% 29.84 in 10.0 mi NE 4.6 mph - N/A   Clear
6:14 AM 42.8 °F 41.1 °F 35.6 °F 76% 29.85 in 10.0 mi NNE 3.5 mph - N/A   Clear
6:34 AM 42.8 °F 40.1 °F 35.6 °F 76% 29.86 in 10.0 mi NNE 4.6 mph - N/A   Clear
6:54 AM 42.8 °F 40.1 °F 35.6 °F 76% 29.86 in 10.0 mi NNE 4.6 mph - N/A   Clear
7:14 AM 44.6 °F 42.2 °F 35.6 °F 71% 29.87 in 10.0 mi NE 4.6 mph - N/A   Clear
7:34 AM 46.4 °F 43.5 °F 35.6 °F 66% 29.86 in 10.0 mi NE 5.8 mph - N/A   Clear
7:53 AM 46.4 °F 44.3 °F 35.6 °F 66% 29.87 in 10.0 mi NE 4.6 mph - N/A   Clear
8:14 AM 50.0 °F - 37.4 °F 62% 29.86 in 10.0 mi NE 4.6 mph - N/A   Clear
8:35 AM 51.8 °F - 39.2 °F 62% 29.87 in 10.0 mi East 4.6 mph - N/A   Clear
8:54 AM 53.6 °F - 41.0 °F 62% 29.87 in 10.0 mi East 4.6 mph - N/A   Clear
9:13 AM 57.2 °F - 42.8 °F 59% 29.88 in 10.0 mi ESE 3.5 mph - N/A   Clear
9:34 AM 59.0 °F - 44.6 °F 59% 29.89 in 10.0 mi ESE 3.5 mph - N/A   Clear
9:55 AM 59.0 °F - 46.4 °F 63% 29.88 in 10.0 mi East 4.6 mph - N/A   Clear
10:13 AM 62.6 °F - 46.4 °F 55% 29.87 in 10.0 mi East 3.5 mph - N/A   Clear
10:34 AM 62.6 °F - 46.4 °F 55% 29.87 in 10.0 mi ESE 4.6 mph - N/A   Clear
10:54 AM 64.4 °F - 46.4 °F 52% 29.88 in 10.0 mi Calm Calm - N/A   Clear
11:14 AM 66.2 °F - 46.4 °F 49% 29.88 in 10.0 mi Calm Calm - N/A   Clear
11:33 AM 68.0 °F - 46.4 °F 46% 29.88 in 10.0 mi ENE 4.6 mph - N/A   Clear
11:54 AM 68.0 °F - 46.4 °F 46% 29.88 in 10.0 mi East 4.6 mph - N/A   Clear
12:14 PM 68.0 °F - 46.4 °F 46% 29.88 in 10.0 mi Calm Calm - N/A   Clear
12:34 PM 69.8 °F - 46.4 °F 43% 29.87 in 10.0 mi ENE 5.8 mph - N/A   Clear
12:54 PM 68.0 °F - 46.4 °F 46% 29.87 in 10.0 mi East 3.5 mph - N/A   Scattered Clouds
1:15 PM 69.8 °F - 46.4 °F 43% 29.86 in 10.0 mi East 3.5 mph - N/A   Mostly Cloudy
1:34 PM 69.8 °F - 46.4 °F 43% 29.86 in 10.0 mi East 9.2 mph - N/A   Scattered Clouds
1:54 PM 68.0 °F - 44.6 °F 43% 29.86 in 10.0 mi ENE 6.9 mph - N/A   Clear
2:14 PM 64.4 °F - 44.6 °F 49% 29.88 in 10.0 mi ENE 9.2 mph - N/A   Scattered Clouds
2:35 PM 62.6 °F - 42.8 °F 48% 29.88 in 10.0 mi ENE 8.1 mph - N/A   Overcast
2:54 PM 62.6 °F - 41.0 °F 45% 29.89 in 10.0 mi ENE 9.2 mph - N/A   Mostly Cloudy
3:14 PM 60.8 °F - 41.0 °F 48% 29.87 in 10.0 mi ENE 9.2 mph 16.1 mph N/A   Overcast
3:34 PM 60.8 °F - 39.2 °F 45% 29.88 in 10.0 mi NE 8.1 mph - N/A   Mostly Cloudy
3:53 PM 59.0 °F - 39.2 °F 48% 29.88 in 10.0 mi NE 5.8 mph - N/A   Mostly Cloudy
4:13 PM 60.8 °F - 39.2 °F 45% 29.88 in 10.0 mi NE 6.9 mph - N/A   Mostly Cloudy
4:34 PM 59.0 °F - 37.4 °F 45% 29.87 in 10.0 mi ENE 8.1 mph - N/A   Mostly Cloudy
4:54 PM 57.2 °F - 37.4 °F 48% 29.88 in 10.0 mi NE 9.2 mph - N/A   Overcast
5:14 PM 55.4 °F - 37.4 °F 51% 29.88 in 10.0 mi NE 9.2 mph - N/A   Mostly Cloudy
5:34 PM 55.4 °F - 35.6 °F 47% 29.88 in 10.0 mi NE 8.1 mph - N/A   Mostly Cloudy
5:54 PM 55.4 °F - 35.6 °F 47% 29.88 in 10.0 mi NE 6.9 mph - N/A   Mostly Cloudy
6:15 PM 53.6 °F - 35.6 °F 51% 29.87 in 10.0 mi ENE 9.2 mph 16.1 mph N/A   Scattered Clouds
6:34 PM 53.6 °F - 35.6 °F 51% 29.87 in 10.0 mi ENE 9.2 mph 17.3 mph N/A   Clear
6:54 PM 51.8 °F - 37.4 °F 58% 29.86 in 10.0 mi ENE 8.1 mph - N/A   Scattered Clouds
7:14 PM 51.8 °F - 37.4 °F 58% 29.86 in 10.0 mi NE 6.9 mph - N/A   Clear
7:34 PM 50.0 °F - 37.4 °F 62% 29.86 in 10.0 mi ENE 12.7 mph 18.4 mph N/A   Mostly Cloudy
7:54 PM 48.2 °F - 35.6 °F 62% 29.86 in 10.0 mi NE 9.2 mph 16.1 mph N/A   Overcast
8:15 PM 46.4 °F 41.1 °F 35.6 °F 66% 29.86 in 10.0 mi ENE 11.5 mph 17.3 mph N/A   Overcast
8:33 PM 46.4 °F 41.5 °F 33.8 °F 62% 29.86 in 10.0 mi NE 10.4 mph 17.3 mph N/A   Overcast
8:54 PM 44.6 °F 39.7 °F 33.8 °F 66% 29.85 in 10.0 mi ENE 9.2 mph - N/A   Overcast
9:14 PM 44.6 °F 38.8 °F 33.8 °F 66% 29.86 in 10.0 mi ENE 11.5 mph 16.1 mph N/A   Overcast
9:34 PM 44.6 °F 38.8 °F 33.8 °F 66% 29.87 in 10.0 mi ENE 11.5 mph 18.4 mph N/A   Overcast
9:53 PM 44.6 °F 40.2 °F 33.8 °F 66% 29.86 in 10.0 mi ENE 8.1 mph - N/A   Overcast
10:14 PM 42.8 °F 37.5 °F 32.0 °F 66% 29.86 in 10.0 mi ENE 9.2 mph - N/A   Overcast
10:34 PM 44.6 °F 41.4 °F 32.0 °F 61% 29.86 in 10.0 mi NE 5.8 mph - N/A   Overcast
10:54 PM 44.6 °F 40.7 °F 32.0 °F 61% 29.86 in 10.0 mi NE 6.9 mph - N/A   Overcast
11:14 PM 44.6 °F 41.4 °F 32.0 °F 61% 29.89 in 10.0 mi NE 5.8 mph - N/A   Overcast
11:34 PM 44.6 °F 41.4 °F 33.8 °F 66% 29.87 in 10.0 mi NE 5.8 mph - N/A   Light Drizzle
11:53 PM 44.6 °F 40.7 °F 33.8 °F 66% 29.87 in 10.0 mi ENE 6.9 mph - N/A   Light Drizzle